Time,TemperatureF,DewpointF,PressureIn,WindDirection,WindDirectionDegrees,WindSpeedMPH,WindSpeedGustMPH,Humidity,HourlyPrecipIn,Conditions,Clouds,dailyrainin,SoftwareType,DateUTC
2013-07-29 00:02:00,81.3,53.2,28.81,NE,45,1.6,2.2,38,0.00,,,0.00,open2300-1.11,2013-07-28 21:02:00,
2013-07-29 00:07:00,81.3,54.0,28.82,NE,45,0.0,1.6,39,0.00,,,0.00,open2300-1.11,2013-07-28 21:07:00,
2013-07-29 00:17:00,81.1,53.8,28.81,NNE,22,0.0,1.6,39,0.00,,,0.00,open2300-1.11,2013-07-28 21:17:00,
2013-07-29 00:24:00,81.1,53.8,28.81,NNE,22,3.6,3.6,39,0.00,,,0.00,open2300-1.11,2013-07-28 21:24:00,
2013-07-29 00:32:00,81.1,53.8,28.81,NNE,22,0.0,2.2,39,0.00,,,0.00,open2300-1.11,2013-07-28 21:32:00,
2013-07-29 00:42:00,81.1,53.8,28.81,NNE,22,0.0,0.0,39,0.00,,,0.00,open2300-1.11,2013-07-28 21:42:00,
2013-07-29 00:57:00,81.1,53.8,28.81,NE,45,1.8,2.5,39,0.00,,,0.00,open2300-1.11,2013-07-28 21:57:00,
2013-07-29 01:02:00,81.1,53.8,28.81,NNE,22,0.0,1.8,39,0.00,,,0.00,open2300-1.11,2013-07-28 22:02:00,
2013-07-29 01:07:00,81.1,53.8,28.81,NE,45,0.0,0.0,39,0.00,,,0.00,open2300-1.11,2013-07-28 22:07:00,
2013-07-29 01:17:00,81.1,53.8,28.82,NE,45,2.5,2.5,39,0.00,,,0.00,open2300-1.11,2013-07-28 22:17:00,
2013-07-29 01:22:00,81.1,53.8,28.82,NE,45,0.0,3.4,39,0.00,,,0.00,open2300-1.11,2013-07-28 22:22:00,
2013-07-29 01:27:00,81.1,53.8,28.82,NE,45,0.0,3.6,39,0.00,,,0.00,open2300-1.11,2013-07-28 22:27:00,
2013-07-29 01:37:00,81.0,53.7,28.81,NE,45,0.0,4.9,39,0.00,,,0.00,open2300-1.11,2013-07-28 22:37:00,
2013-07-29 01:42:00,81.0,53.7,28.82,NNE,22,1.6,1.6,39,0.00,,,0.00,open2300-1.11,2013-07-28 22:42:00,
2013-07-29 01:47:00,81.0,53.7,28.81,NE,45,0.0,4.5,39,0.00,,,0.00,open2300-1.11,2013-07-28 22:47:00,
2013-07-29 01:52:00,81.0,53.7,28.81,NE,45,0.0,0.0,39,0.00,,,0.00,open2300-1.11,2013-07-28 22:52:00,
2013-07-29 02:02:00,80.8,54.3,28.81,NNE,22,0.9,2.0,40,0.00,,,0.00,open2300-1.11,2013-07-28 23:02:00,
2013-07-29 02:12:00,80.8,54.3,28.81,NE,45,1.8,1.8,40,0.00,,,0.00,open2300-1.11,2013-07-28 23:12:00,
2013-07-29 02:22:00,80.6,54.1,28.81,NE,45,0.0,0.0,40,0.00,,,0.00,open2300-1.11,2013-07-28 23:22:00,
2013-07-29 02:27:00,80.6,54.1,28.81,NE,45,0.0,0.0,40,0.00,,,0.00,open2300-1.11,2013-07-28 23:27:00,
2013-07-29 02:32:00,80.6,54.1,28.81,NE,45,0.0,5.6,40,0.00,,,0.00,open2300-1.11,2013-07-28 23:32:00,
2013-07-29 02:42:00,80.4,54.6,28.80,North,0,4.2,4.2,41,0.00,,,0.00,open2300-1.11,2013-07-28 23:42:00,
2013-07-29 02:47:00,80.4,54.6,28.80,NE,45,0.9,4.2,41,0.00,,,0.00,open2300-1.11,2013-07-28 23:47:00,
2013-07-29 02:52:00,80.4,54.6,28.81,NNE,22,0.0,3.1,41,0.00,,,0.00,open2300-1.11,2013-07-28 23:52:00,
2013-07-29 03:07:00,80.2,55.0,28.80,NE,45,0.0,3.6,42,0.00,,,0.00,open2300-1.11,2013-07-29 00:07:00,
2013-07-29 03:17:00,79.9,54.7,28.80,NNE,22,2.7,2.7,42,0.00,,,0.00,open2300-1.11,2013-07-29 00:17:00,
2013-07-29 03:27:00,79.9,54.7,28.81,NE,45,2.0,2.0,42,0.00,,,0.00,open2300-1.11,2013-07-29 00:27:00,
2013-07-29 03:32:00,79.7,55.2,28.81,NNE,22,5.1,8.1,43,0.00,,,0.00,open2300-1.11,2013-07-29 00:32:00,
2013-07-29 03:37:00,79.7,55.2,28.81,NE,45,0.0,5.1,43,0.00,,,0.00,open2300-1.11,2013-07-29 00:37:00,
2013-07-29 03:47:00,79.5,55.0,28.81,NNE,22,2.5,4.7,43,0.00,,,0.00,open2300-1.11,2013-07-29 00:47:00,
2013-07-29 03:52:00,79.5,55.6,28.80,NE,45,1.1,2.5,44,0.00,,,0.00,open2300-1.11,2013-07-29 00:52:00,
2013-07-29 04:02:00,79.3,55.5,28.80,NE,45,0.0,0.0,44,0.00,,,0.00,open2300-1.11,2013-07-29 01:02:00,
2013-07-29 04:12:00,79.3,56.1,28.80,NE,45,0.0,2.9,45,0.00,,,0.00,open2300-1.11,2013-07-29 01:12:00,
2013-07-29 04:17:00,79.2,55.9,28.80,NE,45,0.0,0.0,45,0.00,,,0.00,open2300-1.11,2013-07-29 01:17:00,
2013-07-29 04:22:00,79.2,55.9,28.80,NE,45,4.0,4.0,45,0.00,,,0.00,open2300-1.11,2013-07-29 01:22:00,
2013-07-29 04:32:00,79.0,55.7,28.80,NE,45,3.6,3.6,45,0.00,,,0.00,open2300-1.11,2013-07-29 01:32:00,
2013-07-29 04:37:00,79.0,55.7,28.80,NNE,22,2.5,3.6,45,0.00,,,0.00,open2300-1.11,2013-07-29 01:37:00,
2013-07-29 04:42:00,79.0,55.7,28.81,NNE,22,1.3,2.5,45,0.00,,,0.00,open2300-1.11,2013-07-29 01:42:00,
2013-07-29 04:57:00,78.6,56.6,28.80,NNE,22,1.3,1.6,47,0.00,,,0.00,open2300-1.11,2013-07-29 01:57:00,
2013-07-29 05:17:00,78.4,56.5,28.81,NE,45,0.0,0.0,47,0.00,,,0.00,open2300-1.11,2013-07-29 02:17:00,
2013-07-29 05:27:00,78.4,55.9,28.81,NE,45,0.0,1.1,46,0.00,,,0.00,open2300-1.11,2013-07-29 02:27:00,
2013-07-29 05:32:00,78.4,55.9,28.81,NE,45,0.0,0.7,46,0.00,,,0.00,open2300-1.11,2013-07-29 02:32:00,
2013-07-29 05:42:00,78.3,55.7,28.81,NNE,22,0.0,3.6,46,0.00,,,0.00,open2300-1.11,2013-07-29 02:42:00,
2013-07-29 05:47:00,78.1,55.5,28.81,NE,45,0.0,1.6,46,0.00,,,0.00,open2300-1.11,2013-07-29 02:47:00,
2013-07-29 05:57:00,78.1,55.5,28.81,NE,45,0.0,0.9,46,0.00,,,0.00,open2300-1.11,2013-07-29 02:57:00,
2013-07-29 06:07:00,78.1,55.5,28.81,NE,45,0.0,4.0,46,0.00,,,0.00,open2300-1.11,2013-07-29 03:07:00,
2013-07-29 06:12:00,78.1,54.9,28.82,NE,45,0.0,0.0,45,0.00,,,0.00,open2300-1.11,2013-07-29 03:12:00,
2013-07-29 06:22:00,78.1,54.9,28.82,NNE,22,0.7,0.7,45,0.00,,,0.00,open2300-1.11,2013-07-29 03:22:00,
2013-07-29 06:27:00,78.1,54.9,28.82,NE,45,0.0,2.9,45,0.00,,,0.00,open2300-1.11,2013-07-29 03:27:00,
2013-07-29 06:47:00,78.1,54.3,28.82,NNE,22,0.0,0.0,44,0.00,,,0.00,open2300-1.11,2013-07-29 03:47:00,
2013-07-29 07:02:00,77.9,54.2,28.82,NNE,22,0.0,0.0,44,0.00,,,0.00,open2300-1.11,2013-07-29 04:02:00,
2013-07-29 07:07:00,77.9,54.2,28.82,NNE,22,0.0,0.0,44,0.00,,,0.00,open2300-1.11,2013-07-29 04:07:00,
2013-07-29 07:12:00,77.9,54.2,28.82,NE,45,0.0,0.0,44,0.00,,,0.00,open2300-1.11,2013-07-29 04:12:00,
2013-07-29 07:17:00,77.9,54.2,28.82,NE,45,0.0,0.0,44,0.00,,,0.00,open2300-1.11,2013-07-29 04:17:00,
2013-07-29 07:22:00,77.9,54.2,28.82,NE,45,0.0,0.0,44,0.00,,,0.00,open2300-1.11,2013-07-29 04:22:00,
2013-07-29 07:27:00,78.1,54.3,28.82,NNE,22,0.0,0.0,44,0.00,,,0.00,open2300-1.11,2013-07-29 04:27:00,
2013-07-29 07:32:00,78.1,54.3,28.81,NNE,22,0.0,0.0,44,0.00,,,0.00,open2300-1.11,2013-07-29 04:32:00,
2013-07-29 07:37:00,78.1,54.3,28.81,NNE,22,0.0,0.0,44,0.00,,,0.00,open2300-1.11,2013-07-29 04:37:00,
2013-07-29 07:47:00,78.3,54.5,28.81,NNE,22,0.0,4.5,44,0.00,,,0.00,open2300-1.11,2013-07-29 04:47:00,
2013-07-29 07:52:00,78.4,54.0,28.81,NE,45,0.0,0.0,43,0.00,,,0.00,open2300-1.11,2013-07-29 04:52:00,
2013-07-29 07:57:00,78.4,54.0,28.81,NE,45,1.8,3.6,43,0.00,,,0.00,open2300-1.11,2013-07-29 04:57:00,
2013-07-29 08:07:00,78.6,54.2,28.81,NNE,22,0.9,6.9,43,0.00,,,0.00,open2300-1.11,2013-07-29 05:07:00,
2013-07-29 08:17:00,79.0,54.5,28.81,North,0,0.0,4.5,43,0.00,,,0.00,open2300-1.11,2013-07-29 05:17:00,
2013-07-29 08:22:00,79.0,54.5,28.81,NNE,22,0.2,0.2,43,0.00,,,0.00,open2300-1.11,2013-07-29 05:22:00,
2013-07-29 08:27:00,79.2,55.3,28.81,NNE,22,0.0,2.9,44,0.00,,,0.00,open2300-1.11,2013-07-29 05:27:00,
2013-07-29 08:37:00,79.3,55.5,28.81,NE,45,0.0,0.0,44,0.00,,,0.00,open2300-1.11,2013-07-29 05:37:00,
2013-07-29 08:42:00,79.3,55.5,28.81,NE,45,2.9,2.9,44,0.00,,,0.00,open2300-1.11,2013-07-29 05:42:00,
2013-07-29 08:47:00,79.5,55.6,28.81,NNE,22,0.0,2.9,44,0.00,,,0.00,open2300-1.11,2013-07-29 05:47:00,
2013-07-29 08:52:00,79.5,55.6,28.81,NE,45,2.0,2.0,44,0.00,,,0.00,open2300-1.11,2013-07-29 05:52:00,
2013-07-29 09:02:00,79.9,55.9,28.81,NE,45,2.2,2.9,44,0.00,,,0.00,open2300-1.11,2013-07-29 06:02:00,
2013-07-29 09:07:00,79.9,55.9,28.81,NE,45,0.0,2.2,44,0.00,,,0.00,open2300-1.11,2013-07-29 06:07:00,
2013-07-29 09:18:00,80.4,56.4,28.81,NNE,22,0.7,5.1,44,0.00,,,0.00,open2300-1.11,2013-07-29 06:18:00,
2013-07-29 09:32:00,80.8,56.1,28.80,NNE,22,0.0,2.5,43,0.00,,,0.00,open2300-1.11,2013-07-29 06:32:00,
2013-07-29 09:37:00,81.0,56.3,28.81,NNE,22,0.0,2.0,43,0.00,,,0.00,open2300-1.11,2013-07-29 06:37:00,
2013-07-29 09:42:00,81.3,56.6,28.80,NE,45,0.0,2.0,43,0.00,,,0.00,open2300-1.11,2013-07-29 06:42:00,
2013-07-29 09:47:00,81.5,56.2,28.80,NNE,22,6.0,6.0,42,0.00,,,0.00,open2300-1.11,2013-07-29 06:47:00,
2013-07-29 09:57:00,82.0,56.0,28.80,NE,45,4.0,6.0,41,0.00,,,0.00,open2300-1.11,2013-07-29 06:57:00,
2013-07-29 10:02:00,82.0,56.0,28.81,NE,45,1.1,4.0,41,0.00,,,0.00,open2300-1.11,2013-07-29 07:02:00,
2013-07-29 10:07:00,82.2,56.2,28.80,NE,45,1.3,2.5,41,0.00,,,0.00,open2300-1.11,2013-07-29 07:07:00,
2013-07-29 10:17:00,82.9,56.2,28.80,NE,45,0.0,7.2,40,0.00,,,0.00,open2300-1.11,2013-07-29 07:17:00,
2013-07-29 10:32:00,83.5,55.9,28.80,NNE,22,2.2,3.6,39,0.00,,,0.00,open2300-1.11,2013-07-29 07:32:00,
2013-07-29 10:37:00,83.5,55.9,28.81,NNE,22,0.0,5.1,39,0.00,,,0.00,open2300-1.11,2013-07-29 07:37:00,
2013-07-29 10:47:00,83.7,56.1,28.81,NNE,22,0.0,1.6,39,0.00,,,0.00,open2300-1.11,2013-07-29 07:47:00,
2013-07-29 10:57:00,83.8,55.5,28.81,NNE,22,2.7,5.6,38,0.00,,,0.00,open2300-1.11,2013-07-29 07:57:00,
2013-07-29 11:02:00,84.0,55.6,28.81,NNE,22,4.0,4.0,38,0.00,,,0.00,open2300-1.11,2013-07-29 08:02:00,
2013-07-29 11:07:00,84.0,55.6,28.81,NE,45,3.1,6.0,38,0.00,,,0.00,open2300-1.11,2013-07-29 08:07:00,
2013-07-29 11:17:00,84.2,55.8,28.81,NE,45,0.0,3.1,38,0.00,,,0.00,open2300-1.11,2013-07-29 08:17:00,
2013-07-29 11:27:00,84.4,55.2,28.81,NE,45,0.0,2.9,37,0.00,,,0.00,open2300-1.11,2013-07-29 08:27:00,
2013-07-29 11:37:00,84.7,55.5,28.81,NNE,22,1.8,4.7,37,0.00,,,0.00,open2300-1.11,2013-07-29 08:37:00,
2013-07-29 11:42:00,84.7,55.5,28.81,NE,45,1.1,5.6,37,0.00,,,0.00,open2300-1.11,2013-07-29 08:42:00,
2013-07-29 11:52:00,84.9,54.9,28.81,NNE,22,3.4,3.8,36,0.00,,,0.00,open2300-1.11,2013-07-29 08:52:00,
2013-07-29 11:57:00,85.1,55.0,28.81,NNE,22,6.0,8.9,36,0.00,,,0.00,open2300-1.11,2013-07-29 08:57:00,
2013-07-29 12:02:00,85.1,55.0,28.81,NNE,22,1.1,9.4,36,0.00,,,0.00,open2300-1.11,2013-07-29 09:02:00,
2013-07-29 12:09:00,85.1,54.2,28.81,NE,45,0.0,5.8,35,0.00,,,0.00,open2300-1.11,2013-07-29 09:09:00,
2013-07-29 12:22:00,85.6,54.7,28.81,NNE,22,1.8,4.0,35,0.00,,,0.00,open2300-1.11,2013-07-29 09:22:00,
2013-07-29 12:32:00,85.8,54.1,28.80,NE,45,5.6,5.6,34,0.00,,,0.00,open2300-1.11,2013-07-29 09:32:00,
2013-07-29 12:37:00,86.0,54.2,28.80,NNE,22,0.0,7.4,34,0.00,,,0.00,open2300-1.11,2013-07-29 09:37:00,
2013-07-29 12:47:00,86.4,53.7,28.80,NE,45,0.0,0.9,33,0.00,,,0.00,open2300-1.11,2013-07-29 09:47:00,
2013-07-29 12:52:00,86.5,54.7,28.80,NE,45,0.0,4.5,34,0.00,,,0.00,open2300-1.11,2013-07-29 09:52:00,
2013-07-29 12:58:00,86.7,54.8,28.80,NE,45,2.7,4.2,34,0.00,,,0.00,open2300-1.11,2013-07-29 09:58:00,
2013-07-29 13:07:00,86.9,54.2,28.80,NNE,22,0.0,6.5,33,0.00,,,0.00,open2300-1.11,2013-07-29 10:07:00,
2013-07-29 13:22:00,87.3,54.5,28.80,NNE,22,2.2,5.8,33,0.00,,,0.00,open2300-1.11,2013-07-29 10:22:00,
2013-07-29 13:37:00,87.4,53.8,28.80,NNE,22,3.6,6.3,32,0.00,,,0.00,open2300-1.11,2013-07-29 10:37:00,
2013-07-29 13:47:00,87.6,54.0,28.80,NE,45,4.2,5.4,32,0.00,,,0.00,open2300-1.11,2013-07-29 10:47:00,
2013-07-29 13:57:00,88.0,53.5,28.80,North,0,6.9,6.9,31,0.00,,,0.00,open2300-1.11,2013-07-29 10:57:00,
2013-07-29 14:07:00,88.7,54.1,28.80,NE,45,2.5,6.5,31,0.00,,,0.00,open2300-1.11,2013-07-29 11:07:00,
2013-07-29 14:22:00,89.4,52.9,28.79,NE,45,5.4,5.8,29,0.00,,,0.00,open2300-1.11,2013-07-29 11:22:00,
2013-07-29 14:32:00,89.8,53.2,28.79,NNE,22,0.0,0.0,29,0.00,,,0.00,open2300-1.11,2013-07-29 11:32:00,
2013-07-29 14:37:00,90.3,53.7,28.79,NE,45,0.0,0.7,29,0.00,,,0.00,open2300-1.11,2013-07-29 11:37:00,
2013-07-29 14:42:00,90.7,54.0,28.79,NE,45,4.5,4.5,29,0.00,,,0.00,open2300-1.11,2013-07-29 11:42:00,
2013-07-29 14:57:00,91.0,54.3,28.79,NE,45,1.1,1.1,29,0.00,,,0.00,open2300-1.11,2013-07-29 11:57:00,
2013-07-29 15:07:00,91.4,53.6,28.79,NE,45,3.1,3.1,28,0.00,,,0.00,open2300-1.11,2013-07-29 12:07:00,
2013-07-29 15:12:00,91.2,53.4,28.79,NE,45,2.7,3.1,28,0.00,,,0.00,open2300-1.11,2013-07-29 12:12:00,
2013-07-29 15:22:00,91.0,53.2,28.79,NNE,22,0.0,0.7,28,0.00,,,0.00,open2300-1.11,2013-07-29 12:22:00,
2013-07-29 15:27:00,91.2,53.4,28.79,NNE,22,0.0,0.0,28,0.00,,,0.00,open2300-1.11,2013-07-29 12:27:00,
2013-07-29 15:32:00,91.2,53.4,28.78,NW,315,1.8,2.7,28,0.00,,,0.00,open2300-1.11,2013-07-29 12:32:00,
2013-07-29 15:52:00,91.8,53.8,28.78,NE,45,0.9,3.6,28,0.00,,,0.00,open2300-1.11,2013-07-29 12:52:00,
2013-07-29 15:57:00,92.1,53.0,28.79,NNE,22,3.6,3.6,27,0.00,,,0.00,open2300-1.11,2013-07-29 12:57:00,
2013-07-29 16:02:00,92.3,53.2,28.78,North,0,5.1,5.1,27,0.00,,,0.00,open2300-1.11,2013-07-29 13:02:00,
2013-07-29 16:07:00,92.5,53.3,28.78,NE,45,3.6,6.7,27,0.00,,,0.00,open2300-1.11,2013-07-29 13:07:00,
2013-07-29 16:17:00,92.5,53.3,28.78,NNE,22,1.8,1.8,27,0.00,,,0.00,open2300-1.11,2013-07-29 13:17:00,
2013-07-29 16:22:00,92.8,52.5,28.78,NNE,22,0.0,4.2,26,0.00,,,0.00,open2300-1.11,2013-07-29 13:22:00,
2013-07-29 16:38:00,94.1,53.6,28.78,NNE,22,0.0,5.6,26,0.00,,,0.00,open2300-1.11,2013-07-29 13:38:00,
2013-07-29 16:47:00,94.8,53.1,28.78,NE,45,1.8,1.8,25,0.00,,,0.00,open2300-1.11,2013-07-29 13:47:00,
2013-07-29 16:52:00,95.2,53.4,28.78,NE,45,7.2,7.2,25,0.00,,,0.00,open2300-1.11,2013-07-29 13:52:00,
2013-07-29 17:02:00,95.5,53.7,28.78,NNE,22,2.2,3.1,25,0.00,,,0.00,open2300-1.11,2013-07-29 14:02:00,
2013-07-29 17:07:00,95.7,52.7,28.77,NNE,22,3.4,3.4,24,0.00,,,0.00,open2300-1.11,2013-07-29 14:07:00,
2013-07-29 17:13:00,95.7,52.7,28.77,NE,45,0.0,7.8,24,0.00,,,0.00,open2300-1.11,2013-07-29 14:13:00,
2013-07-29 17:22:00,95.5,52.6,28.78,NNE,22,0.0,5.6,24,0.00,,,0.00,open2300-1.11,2013-07-29 14:22:00,
2013-07-29 17:32:00,95.5,52.6,28.77,NNE,22,2.7,2.7,24,0.00,,,0.00,open2300-1.11,2013-07-29 14:32:00,
2013-07-29 17:37:00,95.5,52.6,28.77,North,0,1.1,2.7,24,0.00,,,0.00,open2300-1.11,2013-07-29 14:37:00,
2013-07-29 17:42:00,95.5,52.6,28.77,NNE,22,0.0,1.1,24,0.00,,,0.00,open2300-1.11,2013-07-29 14:42:00,
2013-07-29 17:49:00,95.7,51.6,28.77,NNE,22,0.0,0.0,23,0.00,,,0.00,open2300-1.11,2013-07-29 14:49:00,
2013-07-29 17:57:00,96.1,51.9,28.76,NNE,22,2.5,4.9,23,0.00,,,0.00,open2300-1.11,2013-07-29 14:57:00,
2013-07-29 18:02:00,95.7,51.6,28.76,NNE,22,1.1,2.5,23,0.00,,,0.00,open2300-1.11,2013-07-29 15:02:00,
2013-07-29 18:07:00,95.5,51.5,28.77,NE,45,3.8,3.8,23,0.00,,,0.00,open2300-1.11,2013-07-29 15:07:00,
2013-07-29 18:17:00,95.4,52.4,28.77,NNE,22,0.0,4.2,24,0.00,,,0.00,open2300-1.11,2013-07-29 15:17:00,
2013-07-29 18:22:00,95.4,52.4,28.76,NNE,22,0.0,6.0,24,0.00,,,0.00,open2300-1.11,2013-07-29 15:22:00,
2013-07-29 18:27:00,95.5,52.6,28.76,NE,45,4.9,4.9,24,0.00,,,0.00,open2300-1.11,2013-07-29 15:27:00,
2013-07-29 18:37:00,95.7,52.7,28.76,North,0,3.4,3.4,24,0.00,,,0.00,open2300-1.11,2013-07-29 15:37:00,
2013-07-29 18:47:00,95.4,52.4,28.76,NE,45,0.0,3.6,24,0.00,,,0.00,open2300-1.11,2013-07-29 15:47:00,
2013-07-29 18:52:00,95.2,52.3,28.76,NNE,22,1.6,5.4,24,0.00,,,0.00,open2300-1.11,2013-07-29 15:52:00,
2013-07-29 18:57:00,95.0,52.1,28.76,NNE,22,4.9,4.9,24,0.00,,,0.00,open2300-1.11,2013-07-29 15:57:00,
2013-07-29 19:12:00,95.2,51.2,28.76,NNE,22,0.0,1.1,23,0.00,,,0.00,open2300-1.11,2013-07-29 16:12:00,
2013-07-29 19:17:00,95.2,51.2,28.76,NNE,22,1.3,1.3,23,0.00,,,0.00,open2300-1.11,2013-07-29 16:17:00,
2013-07-29 19:22:00,95.2,51.2,28.76,NNE,22,0.0,1.3,23,0.00,,,0.00,open2300-1.11,2013-07-29 16:22:00,
2013-07-29 19:32:00,94.8,52.0,28.76,NNE,22,0.0,0.2,24,0.00,,,0.00,open2300-1.11,2013-07-29 16:32:00,
2013-07-29 19:37:00,94.1,51.4,28.76,North,0,0.0,2.2,24,0.00,,,0.00,open2300-1.11,2013-07-29 16:37:00,
2013-07-29 19:42:00,93.7,51.1,28.77,NE,45,0.0,2.5,24,0.00,,,0.00,open2300-1.11,2013-07-29 16:42:00,
2013-07-29 19:52:00,92.5,51.1,28.77,NNE,22,0.0,0.2,25,0.00,,,0.00,open2300-1.11,2013-07-29 16:52:00,
2013-07-29 20:02:00,91.6,51.5,28.76,NE,45,0.0,0.0,26,0.00,,,0.00,open2300-1.11,2013-07-29 17:02:00,
2013-07-29 20:07:00,91.0,51.0,28.76,NNE,22,0.0,0.0,26,0.00,,,0.00,open2300-1.11,2013-07-29 17:07:00,
2013-07-29 20:12:00,90.5,51.7,28.76,NNE,22,2.0,2.0,27,0.00,,,0.00,open2300-1.11,2013-07-29 17:12:00,
2013-07-29 20:32:00,89.2,51.7,28.76,NNE,22,0.0,0.0,28,0.00,,,0.00,open2300-1.11,2013-07-29 17:32:00,
2013-07-29 20:37:00,88.9,51.3,28.76,NNE,22,0.0,0.7,28,0.00,,,0.00,open2300-1.11,2013-07-29 17:37:00,
2013-07-29 20:47:00,88.3,50.9,28.76,NNE,22,0.0,0.0,28,0.00,,,0.00,open2300-1.11,2013-07-29 17:47:00,
2013-07-29 20:52:00,88.3,50.9,28.76,NNE,22,0.0,0.0,28,0.00,,,0.00,open2300-1.11,2013-07-29 17:52:00,
2013-07-29 20:57:00,88.2,50.7,28.76,NNE,22,0.0,0.0,28,0.00,,,0.00,open2300-1.11,2013-07-29 17:57:00,
2013-07-29 21:02:00,87.8,51.5,28.76,NNE,22,0.0,0.0,29,0.00,,,0.00,open2300-1.11,2013-07-29 18:02:00,
2013-07-29 21:07:00,87.6,51.3,28.76,NNE,22,0.0,0.0,29,0.00,,,0.00,open2300-1.11,2013-07-29 18:07:00,
2013-07-29 21:27:00,87.6,52.4,28.76,NNE,22,0.0,0.0,30,0.00,,,0.00,open2300-1.11,2013-07-29 18:27:00,
2013-07-29 21:38:00,87.4,53.0,28.77,NNE,22,0.0,0.0,31,0.00,,,0.00,open2300-1.11,2013-07-29 18:38:00,
2013-07-29 21:47:00,87.1,53.5,28.76,NNE,22,0.0,0.0,32,0.00,,,0.00,open2300-1.11,2013-07-29 18:47:00,
2013-07-29 21:57:00,86.9,53.4,28.76,NNE,22,0.0,0.0,32,0.00,,,0.00,open2300-1.11,2013-07-29 18:57:00,
2013-07-29 22:02:00,86.9,53.4,28.76,NNE,22,0.0,0.0,32,0.00,,,0.00,open2300-1.11,2013-07-29 19:02:00,
2013-07-29 22:07:00,86.7,53.2,28.76,NNE,22,0.0,0.0,32,0.00,,,0.00,open2300-1.11,2013-07-29 19:07:00,
2013-07-29 22:17:00,86.5,53.9,28.76,NNE,22,0.0,0.0,33,0.00,,,0.00,open2300-1.11,2013-07-29 19:17:00,
2013-07-29 22:27:00,86.4,53.7,28.76,NNE,22,0.0,0.0,33,0.00,,,0.00,open2300-1.11,2013-07-29 19:27:00,
2013-07-29 22:37:00,86.0,53.5,28.76,NNE,22,0.0,0.0,33,0.00,,,0.00,open2300-1.11,2013-07-29 19:37:00,
2013-07-29 22:42:00,85.8,53.3,28.76,NNE,22,0.0,0.0,33,0.00,,,0.00,open2300-1.11,2013-07-29 19:42:00,
2013-07-29 22:57:00,85.6,53.9,28.76,NNE,22,0.0,0.0,34,0.00,,,0.00,open2300-1.11,2013-07-29 19:57:00,
2013-07-29 23:02:00,85.6,53.9,28.76,NNE,22,0.0,0.0,34,0.00,,,0.00,open2300-1.11,2013-07-29 20:02:00,
2013-07-29 23:07:00,85.6,53.9,28.76,NNE,22,0.0,0.0,34,0.00,,,0.00,open2300-1.11,2013-07-29 20:07:00,
2013-07-29 23:12:00,85.5,53.8,28.76,NNE,22,0.0,0.0,34,0.00,,,0.00,open2300-1.11,2013-07-29 20:12:00,
2013-07-29 23:32:00,84.9,54.1,28.76,NNE,22,0.0,0.0,35,0.00,,,0.00,open2300-1.11,2013-07-29 20:32:00,
2013-07-29 23:47:00,84.6,53.7,28.75,NNE,22,0.0,0.0,35,0.00,,,0.00,open2300-1.11,2013-07-29 20:47:00,
2013-07-29 23:57:00,84.4,53.6,28.75,NNE,22,0.0,0.0,35,0.00,,,0.00,open2300-1.11,2013-07-29 20:57:00,